SL-16 R/B

Last updated on Wed Jul 02 2025 00:02:14 GMT+0000 (Coordinated Universal Time)

1 31793U 07029B 25182.57314987 .00000054 00000+0 53026-4 0 9991 2 31793 70.9758 340.2270 0001974 277.4822 151.4047 14.14783880929851
UTC large
Height (km)
Speed (km/s)
/
Latitude / Longitude
Inclination (degrees)
Orbital Period (minutes)
Azimuth
Elevation
Range (km)
Doppler Factor

Next 0 passes for location: London (51.5072 / 0.1276)

Sorry there are no passes over London.